Regional Weather Roundup
Issued by NWS Newport/Morehead, NC

Current Version | Previous Version | Graphics & Text | Print | Product List | Glossary Off
Versions: 1 2 3 4 5 6 7 8 9 10 11 12 13 14 15 16 17 18 19 20 21 22 23 24 25 26 27 28 29 30 31 32 33 34 35 36 37 38 39 40 41 42 43 44 45 46 47 48 49 50

000
ASUS42 KMHX 300510
RWRMHX
WEATHER ROUNDUP FOR EASTERN NORTH CAROLINA
NATIONAL WEATHER SERVICE NEWPORT/MOREHEAD CITY NC
100 AM EDT SAT AUG 30 2014

NOTE: "FAIR" INDICATES FEW OR NO CLOUDS BELOW 12,000 FEET
WITH NO SIGNIFICANT WEATHER AND/OR OBSTRUCTIONS TO VISIBILITY

NCZ015>017-031-032-045>047-102-103-300600-
NORTH COAST

CITY           SKY/WX    TMP DP  RH WIND       PRES   REMARKS
EDENTON        MOCLDY    73  67  84 CALM      30.20R
ELIZABETH CITY CLOUDY    74  65  73 E6        30.20S
KITTY HAWK     PTCLDY    75  66  75 E7        30.19R HAZE
MANTEO         PTCLDY    74  67  77 E9        30.20R

$$

NCZ045>047-081-094-103-104-300600-
CENTRAL COAST

CITY           SKY/WX    TMP DP  RH WIND       PRES   REMARKS
FRISCO         CLEAR     77  75  93 E8        30.17R
SWANQUARTER      N/A     73 N/A N/A NE3G9     30.15S

$$

NCZ095-097-098-100-101-300600-
SOUTHERN COAST

CITY           SKY/WX    TMP DP  RH WIND       PRES   REMARKS
BEAUFORT       CLEAR     76  74  93 CALM      30.18R
CEDAR ISLAND     N/A     75 N/A N/A SE1       30.21S
JACKSONVILLE   PTCLDY    77  73  87 NE3       30.17R
NEWPORT        NOT AVBL
PINEY ISLAND   CLEAR     78  77  96 CALM      30.17R
WILMINGTON     CLEAR     72  71  97 CALM      30.16S


$$

NCZ011>013-027>030-043-044-078>080-089-090>093-098-300600-
COASTAL PLAIN

CITY           SKY/WX    TMP DP  RH WIND       PRES   REMARKS
AHOSKIE        PTCLDY    70  66  87 CALM      30.21R
CLINTON        CLEAR     73  73 100 CALM      30.17S
ELIZABETHTOWN  CLEAR     74  70  87 CALM      30.17R
GOLDSBORO      CLEAR     73  72  98 E5        30.16S
GREENVILLE     PTCLDY    72  68  88 CALM      30.20S
HAVELOCK       PTCLDY    76  73  91 CALM      30.19R
KENANSVILLE    CLEAR     74  72  93 CALM      30.18S
KINSTON        PTCLDY    73  70  88 E5        30.19S
NEW BERN       CLEAR     75  70  84 CALM      30.19S
RICHLANDS      CLOUDY    73  70  88 N5        30.18S
ROANOKE RAPIDS NOT AVBL
ROCKY MOUNT    CLOUDY    72  67  84 NE3       30.19S
WASHINGTON     CLEAR     70  67  90 CALM      30.20R
WHITEVILLE     CLEAR     72  71  95 CALM      30.15S

$$

AMZ130-135-150-152-154-156-158-170-250-252-270-ANZ085-086-088-633-658-670-300600-
MARINE OBSERVATIONS

STATION/POSITION TIME  TEMP    WIND        PRES    WAVE   SWELL
                       AIR SEA DIR/SP/G            HT/PER HT/PER
                 (UTC) (F)     (DEG/KT/KT) (MB)    (FT/S) (FT/S)
CHESAPEAKE LIGHT 0400   74     110/ 10/ 11 1023.3
BUOY 44014       0500   76 76   80/  8/ 10 1022.6    3/ 8   3/ 8
DUCK             0500   76 78   90/ 13/ 14 1021.9
2E DUCK          0500                        N/A     3/ 6
OREGON INLET     0500   75 79   50/  9/ 12 1022.1
BUOY 44095       0500      76                N/A     4/ 8   2/13
20E OREGON INLET NOT AVBL
HATTERAS CG      0500   80 82  110/  7/ 10 1022.0
DIAMOND BUOY     0500   79      50/  6/  8 1021.5    4/ 8   3/ 8
CAPE LOOKOUT     0400   81     100/  3/  4 1021.4
BEAUFORT LAB     0500   77 81   CALM  /  1 1021.1
30 SE NEW RIVER  0500   82 82  180/  4/  4 1021.7    3/ 8   3/ 8
5 SE WRIGHTSVILL 0500   78 81  150/  6/  6   N/A
BUOY 41002       0401   81 83  140/  6/  8 1022.0    3/ 8   3/ 8
BUOY 41004       0500   83 83  160/  6/  8 1019.7    3/ 8   3/ 8

$$



USA.gov is the U.S. government's official web portal to all federal, state and local government web resources and services.